TimeEST,TemperatureF,Dew PointF,Humidity,Sea Level PressureIn,VisibilityMPH,Wind Direction,Wind SpeedMPH,Gust SpeedMPH,PrecipitationIn,Events,Conditions,WindDirDegrees,DateUTC
12:53 AM,32.0,28.0,85,30.04,7.0,WSW,10.4,-,N/A,,Overcast,250,2013-01-01 05:53:00
1:53 AM,32.0,28.9,88,30.04,7.0,WSW,6.9,-,N/A,,Overcast,240,2013-01-01 06:53:00
2:53 AM,32.0,28.9,88,30.04,8.0,SW,9.2,-,N/A,,Overcast,220,2013-01-01 07:53:00
3:35 AM,30.2,28.4,93,29.98,2.5,SW,8.1,-,0.00,Snow,Light Snow,220,2013-01-01 08:35:00
3:48 AM,30.2,30.2,100,29.97,2.0,SSW,8.1,-,0.00,Snow,Light Snow,210,2013-01-01 08:48:00
3:53 AM,30.9,30.0,96,30.04,1.8,SSW,8.1,-,0.00,Snow,Light Snow,210,2013-01-01 08:53:00
4:12 AM,30.2,30.2,100,29.97,1.5,SW,5.8,-,0.00,Snow,Light Snow,220,2013-01-01 09:12:00
4:27 AM,30.2,30.2,100,29.97,2.0,SW,6.9,-,0.00,Snow,Light Snow,220,2013-01-01 09:27:00
4:53 AM,30.9,30.0,96,30.03,2.5,SW,9.2,-,0.00,Snow,Light Snow,220,2013-01-01 09:53:00
5:06 AM,30.2,30.2,100,29.96,3.0,SSW,8.1,-,0.00,Snow,Light Snow,210,2013-01-01 10:06:00
5:53 AM,30.9,30.0,96,30.02,3.0,WSW,8.1,-,0.00,Snow,Light Snow,240,2013-01-01 10:53:00
6:02 AM,30.2,30.2,100,29.97,2.0,SW,8.1,-,0.00,Snow,Light Snow,220,2013-01-01 11:02:00
6:32 AM,30.2,28.4,93,29.97,3.0,SW,8.1,-,0.00,Snow,Light Snow,230,2013-01-01 11:32:00
6:43 AM,30.2,28.4,93,29.96,2.0,SW,6.9,-,0.00,Snow,Light Snow,220,2013-01-01 11:43:00
6:53 AM,30.9,30.0,96,30.02,3.0,SW,6.9,-,0.00,Snow,Light Snow,230,2013-01-01 11:53:00
7:36 AM,30.2,30.2,100,29.97,2.5,SW,6.9,-,0.00,,Overcast,230,2013-01-01 12:36:00
7:46 AM,30.2,28.4,93,29.98,4.0,SW,8.1,-,0.00,,Overcast,230,2013-01-01 12:46:00
7:53 AM,30.9,30.0,96,30.03,2.0,SW,8.1,-,0.00,,Overcast,230,2013-01-01 12:53:00
8:00 AM,30.2,28.4,93,29.98,4.0,SW,9.2,-,N/A,,Overcast,230,2013-01-01 13:00:00
8:14 AM,30.2,28.4,93,29.98,2.5,WSW,9.2,-,N/A,,Overcast,240,2013-01-01 13:14:00
8:24 AM,30.2,28.4,93,29.98,4.0,SW,6.9,-,N/A,,Overcast,230,2013-01-01 13:24:00
8:53 AM,30.9,28.9,92,30.04,4.0,WSW,9.2,-,N/A,,Overcast,240,2013-01-01 13:53:00
9:53 AM,30.9,28.9,92,30.04,5.0,WSW,8.1,-,0.00,,Overcast,240,2013-01-01 14:53:00
10:53 AM,32.0,28.9,88,30.05,9.0,Variable,6.9,-,N/A,,Overcast,0,2013-01-01 15:53:00
11:53 AM,32.0,27.0,82,30.01,7.0,NW,3.5,-,N/A,,Overcast,320,2013-01-01 16:53:00
12:07 PM,32.0,26.6,80,29.95,7.0,Variable,4.6,-,N/A,,Overcast,0,2013-01-01 17:07:00
12:35 PM,32.0,28.4,87,29.95,7.0,Variable,5.8,-,N/A,,Overcast,0,2013-01-01 17:35:00
12:53 PM,32.0,27.0,82,30.00,7.0,NW,6.9,-,N/A,,Overcast,320,2013-01-01 17:53:00
1:53 PM,30.9,27.0,85,29.99,5.0,NW,8.1,-,N/A,,Overcast,320,2013-01-01 18:53:00
2:53 PM,30.0,26.1,85,29.99,4.0,NNW,8.1,-,N/A,,Overcast,340,2013-01-01 19:53:00
2:59 PM,30.2,26.6,86,29.94,4.0,NNW,10.4,-,N/A,,Overcast,330,2013-01-01 19:59:00
3:01 PM,30.2,26.6,86,29.94,4.0,NNW,9.2,-,N/A,,Overcast,340,2013-01-01 20:01:00
3:14 PM,30.2,26.6,86,29.96,4.0,NNW,8.1,-,N/A,,Overcast,330,2013-01-01 20:14:00
3:31 PM,30.2,26.6,86,29.95,5.0,NNW,8.1,-,N/A,,Overcast,330,2013-01-01 20:31:00
3:53 PM,30.0,25.0,82,30.02,7.0,NW,6.9,-,N/A,,Overcast,320,2013-01-01 20:53:00
4:39 PM,28.4,24.8,86,29.99,6.0,NNW,10.4,-,N/A,,Overcast,330,2013-01-01 21:39:00
4:53 PM,28.0,24.1,85,30.04,6.0,NNW,9.2,-,N/A,,Overcast,330,2013-01-01 21:53:00
5:12 PM,28.4,24.8,86,30.00,8.0,NNW,6.9,-,N/A,,Overcast,330,2013-01-01 22:12:00
5:33 PM,28.4,24.8,86,30.00,9.0,NNW,9.2,-,N/A,,Overcast,340,2013-01-01 22:33:00
5:53 PM,27.0,23.0,85,30.06,10.0,NNW,5.8,-,N/A,,Overcast,330,2013-01-01 22:53:00
6:35 PM,26.6,21.2,80,29.99,10.0,North,8.1,-,N/A,,Overcast,350,2013-01-01 23:35:00
6:53 PM,27.0,21.0,78,30.06,10.0,NNW,6.9,-,N/A,,Overcast,340,2013-01-01 23:53:00
7:53 PM,26.1,19.9,78,30.07,10.0,NNW,4.6,-,N/A,,Overcast,330,2013-01-02 00:53:00
8:53 PM,25.0,19.0,78,30.08,10.0,NNW,6.9,-,N/A,,Overcast,340,2013-01-02 01:53:00
9:53 PM,24.1,18.0,77,30.08,10.0,NNW,8.1,-,N/A,,Overcast,330,2013-01-02 02:53:00
10:53 PM,24.1,18.0,77,30.09,10.0,North,8.1,-,N/A,,Overcast,350,2013-01-02 03:53:00
11:53 PM,21.9,16.0,78,30.10,10.0,NNW,6.9,-,N/A,,Overcast,340,2013-01-02 04:53:00